| time (UTC) | temp C | wind direction | speed KPH | gust KPH | rain 1hr cm | rain 24hr cm | rain mn cm | humidity % | barometer mb |
| 20260831022531 | 20 | 347 | 6.4 | 11.3 | 0.00 | 0.00 | 0.00 | 39 | 1029.6 |
| 20260831021536 | 20 | 330 | 8.0 | 14.5 | 0.00 | 0.00 | 0.00 | 41 | 1029.8 |
| 20260831020519 | 20 | 329 | 6.4 | 14.5 | 0.00 | 0.00 | 0.00 | 43 | 1029.8 |
| 20260831015523 | 20 | 318 | 3.2 | 8.0 | 0.00 | 0.00 | 0.00 | 44 | 1029.9 |
| 20260831014529 | 18 | 278 | 1.6 | 4.8 | 0.00 | 0.00 | 0.00 | 47 | 1030.0 |
| 20260831013535 | 18 | 301 | 4.8 | 9.7 | 0.00 | 0.00 | 0.00 | 46 | 1030.2 |
| 20260831012520 | 18 | 301 | 3.2 | 8.0 | 0.00 | 0.00 | 0.00 | 49 | 1030.4 |
| 20260831011525 | 17 | 286 | 1.6 | 3.2 | 0.00 | 0.00 | 0.00 | 52 | 1030.4 |
| 20260831010535 | 16 | 289 | 4.8 | 6.4 | 0.00 | 0.00 | 0.00 | 57 | 1030.6 |
| 20260831005533 | 16 | 268 | 3.2 | 8.0 | 0.00 | 0.00 | 0.00 | 58 | 1030.7 |
| 20260831004517 | 15 | 206 | 3.2 | 6.4 | 0.00 | 0.00 | 0.00 | 59 | 1030.8 |
| 20260831003523 | 15 | 197 | 4.8 | 6.4 | 0.00 | 0.00 | 0.00 | 62 | 1030.9 |
| 20260831002534 | 15 | 191 | 4.8 | 9.7 | 0.00 | 0.00 | 0.00 | 63 | 1030.9 |
| 20260831001540 | 13 | 211 | 3.2 | 9.7 | 0.00 | 0.00 | 0.00 | 64 | 1031.1 |
| 20260831000517 | 13 | 194 | 4.8 | 6.4 | 0.00 | 0.00 | 0.00 | 65 | 1031.1 |
| 20260830235525 | 13 | 184 | 6.4 | 9.7 | 0.00 | 0.00 | 0.00 | 63 | 1031.1 |
| 20260830234528 | 12 | 195 | 4.8 | 8.0 | 0.00 | 0.00 | 0.00 | 63 | 1031.2 |
| 20260830233534 | 12 | 187 | 4.8 | 8.0 | 0.00 | 0.00 | 0.00 | 65 | 1031.2 |
| 20260830232518 | 12 | 174 | 6.4 | 11.3 | 0.00 | 0.00 | 0.00 | 65 | 1031.3 |
| 20260830231524 | 11 | 167 | 6.4 | 9.7 | 0.00 | 0.00 | 0.00 | 67 | 1031.4 |
| 20260830230529 | 11 | 163 | 6.4 | 9.7 | 0.00 | 0.00 | 0.00 | 68 | 1031.3 |
| 20260830225534 | 11 | 169 | 4.8 | 9.7 | 0.00 | 0.00 | 0.00 | 70 | 1031.3 |
| 20260830224519 | 11 | 188 | 3.2 | 6.4 | 0.00 | 0.00 | 0.00 | 74 | 1031.3 |
| 20260830223534 | 10 | 171 | 4.8 | 8.0 | 0.00 | 0.00 | 0.00 | 79 | 1031.3 |
| 20260830222518 | 10 | 190 | 4.8 | 6.4 | 0.00 | 0.00 | 0.00 | 82 | 1031.3 |
| 20260830221522 | 9 | 176 | 3.2 | 6.4 | 0.00 | 0.00 | 0.00 | 82 | 1031.2 |
| 20260830220529 | 8 | 169 | 3.2 | 6.4 | 0.00 | 0.00 | 0.00 | 85 | 1031.0 |
| 20260830215548 | 7 | 172 | 3.2 | 6.4 | 0.00 | 0.00 | 0.00 | 90 | 1031.1 |
| 20260830214520 | 7 | 173 | 4.8 | 6.4 | 0.00 | 0.00 | 0.00 | 93 | 1031.0 |
| 20260830213523 | 6 | 181 | 3.2 | 4.8 | 0.00 | 0.00 | 0.00 | 93 | 1031.0 |
| 20260830212528 | 6 | 172 | 3.2 | 6.4 | 0.00 | 0.00 | 0.00 | 92 | 1030.8 |
| 20260830211533 | 6 | 182 | 1.6 | 4.8 | 0.00 | 0.00 | 0.00 | 92 | 1030.8 |
| 20260830210518 | 6 | 267 | 0.0 | 3.2 | 0.00 | 0.00 | 0.00 | 93 | 1030.7 |
| 20260830205524 | 6 | 209 | 1.6 | 3.2 | 0.00 | 0.00 | 0.00 | 93 | 1030.7 |
| 20260830204528 | 6 | 189 | 0.0 | 3.2 | 0.00 | 0.00 | 0.00 | 93 | 1030.5 |
| 20260830203534 | 6 | 171 | 1.6 | 4.8 | 0.00 | 0.00 | 0.00 | 93 | 1030.4 |
| 20260830202518 | 6 | 115 | 0.0 | 3.2 | 0.00 | 0.00 | 0.00 | 93 | 1030.3 |
| 20260830201530 | 6 | 84 | 0.0 | 1.6 | 0.00 | 0.00 | 0.00 | 93 | 1030.1 |
| 20260830200528 | 5 | 37 | 1.6 | 3.2 | 0.00 | 0.00 | 0.00 | 93 | 1030.1 |
| 20260830195533 | 5 | 94 | 1.6 | 4.8 | 0.00 | 0.00 | 0.00 | 94 | 1029.9 |
| 20260830194518 | 5 | 145 | 3.2 | 6.4 | 0.00 | 0.00 | 0.00 | 95 | 1029.8 |
| 20260830193531 | 6 | 156 | 6.4 | 8.0 | 0.00 | 0.00 | 0.00 | 96 | 1029.7 |
| 20260830192530 | 6 | 172 | 3.2 | 4.8 | 0.00 | 0.00 | 0.00 | 95 | 1029.6 |
| 20260830191536 | 6 | 177 | 3.2 | 6.4 | 0.00 | 0.00 | 0.00 | 94 | 1029.6 |
| 20260830190520 | 7 | 164 | 3.2 | 6.4 | 0.00 | 0.00 | 0.00 | 93 | 1029.5 |
| 20260830185528 | 7 | 85 | 0.0 | 3.2 | 0.00 | 0.00 | 0.00 | 88 | 1029.3 |
| 20260830184532 | 7 | 71 | 3.2 | 6.4 | 0.00 | 0.00 | 0.00 | 95 | 1029.2 |
| 20260830183536 | 7 | 80 | 1.6 | 3.2 | 0.00 | 0.00 | 0.00 | 95 | 1029.2 |
| 20260830182522 | 7 | 84 | 0.0 | 3.2 | 0.00 | 0.00 | 0.00 | 95 | 1029.3 |
| 20260830181525 | 7 | 138 | 1.6 | 3.2 | 0.00 | 0.00 | 0.00 | 94 | 1029.4 |
| 20260830180534 | 7 | 131 | 1.6 | 3.2 | 0.00 | 0.00 | 0.00 | 94 | 1029.3 |
| 20260830175532 | 7 | 105 | 1.6 | 4.8 | 0.00 | 0.00 | 0.00 | 95 | 1029.0 |
| 20260830174516 | 7 | 73 | 3.2 | 4.8 | 0.00 | 0.00 | 0.00 | 96 | 1028.9 |
| 20260830173521 | 7 | 33 | 4.8 | 6.4 | 0.00 | 0.00 | 0.00 | 96 | 1029.0 |
| 20260830172524 | 7 | 62 | 1.6 | 6.4 | 0.00 | 0.00 | 0.00 | 96 | 1029.0 |
| 20260830171530 | 7 | 136 | 3.2 | 6.4 | 0.00 | 0.00 | 0.00 | 96 | 1029.1 |
| 20260830170534 | 8 | 41 | 1.6 | 4.8 | 0.00 | 0.00 | 0.00 | 95 | 1029.1 |
| 20260830165518 | 8 | 31 | 3.2 | 4.8 | 0.00 | 0.00 | 0.00 | 95 | 1029.3 |
| 20260830164522 | 8 | 68 | 3.2 | 4.8 | 0.00 | 0.00 | 0.00 | 95 | 1029.4 |
| 20260830163530 | 8 | 140 | 3.2 | 4.8 | 0.00 | 0.00 | 0.00 | 95 | 1029.2 |
| 20260830162533 | 8 | 125 | 3.2 | 4.8 | 0.00 | 0.00 | 0.00 | 94 | 1029.4 |
| 20260830161519 | 8 | 152 | 3.2 | 6.4 | 0.00 | 0.00 | 0.00 | 95 | 1029.3 |
| 20260830160524 | 8 | 152 | 4.8 | 9.7 | 0.00 | 0.00 | 0.00 | 94 | 1029.6 |
| 20260830155528 | 8 | 137 | 3.2 | 6.4 | 0.00 | 0.00 | 0.00 | 94 | 1029.7 |
| 20260830154535 | 8 | 170 | 4.8 | 6.4 | 0.00 | 0.00 | 0.00 | 94 | 1029.7 |
| 20260830153524 | 8 | 142 | 3.2 | 6.4 | 0.00 | 0.00 | 0.00 | 94 | 1029.8 |
| 20260830152522 | 8 | 62 | 1.6 | 4.8 | 0.00 | 0.00 | 0.00 | 93 | 1029.7 |
| 20260830151528 | 8 | 27 | 3.2 | 6.4 | 0.00 | 0.00 | 0.00 | 93 | 1029.7 |
| 20260830150533 | 9 | 82 | 1.6 | 4.8 | 0.00 | 0.00 | 0.00 | 92 | 1029.9 |
| 20260830145517 | 9 | 18 | 4.8 | 9.7 | 0.00 | 0.00 | 0.00 | 92 | 1030.0 |
| 20260830144522 | 9 | 143 | 3.2 | 4.8 | 0.00 | 0.00 | 0.00 | 92 | 1030.0 |
| 20260830143526 | 10 | 153 | 4.8 | 8.0 | 0.00 | 0.00 | 0.00 | 91 | 1030.1 |
| 20260830142532 | 10 | 79 | 3.2 | 8.0 | 0.00 | 0.00 | 0.00 | 90 | 1030.0 |
| 20260830141534 | 10 | 73 | 1.6 | 4.8 | 0.00 | 0.00 | 0.00 | 91 | 1030.1 |
| 20260830140517 | 9 | 161 | 3.2 | 8.0 | 0.00 | 0.00 | 0.00 | 92 | 1030.1 |
| 20260830135523 | 10 | 155 | 3.2 | 8.0 | 0.00 | 0.00 | 0.00 | 91 | 1030.2 |
| 20260830134526 | 10 | 27 | 4.8 | 9.7 | 0.00 | 0.00 | 0.00 | 91 | 1030.3 |
| 20260830133530 | 10 | 136 | 1.6 | 4.8 | 0.00 | 0.00 | 0.00 | 90 | 1030.1 |
| 20260830132534 | 10 | 109 | 3.2 | 6.4 | 0.00 | 0.00 | 0.00 | 89 | 1030.3 |
| 20260830131518 | 10 | 147 | 1.6 | 6.4 | 0.00 | 0.00 | 0.00 | 90 | 1030.3 |
| 20260830130539 | 10 | 328 | 1.6 | 6.4 | 0.00 | 0.00 | 0.00 | 87 | 1030.5 |
| 20260830125527 | 11 | 167 | 1.6 | 3.2 | 0.00 | 0.00 | 0.00 | 87 | 1030.3 |
| 20260830124530 | 11 | 0.0 | 1.6 | 0.00 | 0.00 | 0.00 | 85 | 1030.4 | |
| 20260830123534 | 11 | 0.0 | 3.2 | 0.00 | 0.00 | 0.00 | 84 | 1030.3 | |
| 20260830122517 | 11 | 0.0 | 0.0 | 0.00 | 0.00 | 0.00 | 84 | 1030.5 | |
| 20260830121520 | 12 | 0.0 | 0.0 | 0.00 | 0.00 | 0.00 | 83 | 1030.5 | |
| 20260830120525 | 12 | 0.0 | 1.6 | 0.00 | 0.00 | 0.00 | 82 | 1030.4 | |
| 20260830115530 | 12 | 138 | 1.6 | 3.2 | 0.00 | 0.00 | 0.00 | 82 | 1030.3 |
| 20260830114518 | 12 | 146 | 0.0 | 1.6 | 0.00 | 0.00 | 0.00 | 80 | 1030.3 |
| 20260830113521 | 13 | 0.0 | 0.0 | 0.00 | 0.00 | 0.00 | 78 | 1030.3 | |
| 20260830112528 | 13 | 68 | 1.6 | 3.2 | 0.00 | 0.00 | 0.00 | 79 | 1030.2 |
| 20260830111531 | 13 | 0.0 | 0.0 | 0.00 | 0.00 | 0.00 | 78 | 1030.2 | |
| 20260830110536 | 13 | 39 | 0.0 | 1.6 | 0.00 | 0.00 | 0.00 | 80 | 1030.1 |
| 20260830105520 | 12 | 177 | 0.0 | 1.6 | 0.00 | 0.00 | 0.00 | 80 | 1029.9 |
| 20260830104525 | 13 | 0.0 | 0.0 | 0.00 | 0.00 | 0.00 | 79 | 1029.8 | |
| 20260830103528 | 13 | 195 | 1.6 | 3.2 | 0.00 | 0.00 | 0.00 | 76 | 1029.7 |
| 20260830102534 | 13 | 0.0 | 1.6 | 0.00 | 0.00 | 0.00 | 77 | 1029.6 | |
| 20260830101525 | 14 | 323 | 0.0 | 3.2 | 0.00 | 0.00 | 0.00 | 75 | 1029.5 |
| 20260830100538 | 14 | 55 | 0.0 | 3.2 | 0.00 | 0.00 | 0.00 | 75 | 1029.3 |
| 20260830095535 | 14 | 10 | 0.0 | 1.6 | 0.00 | 0.00 | 0.00 | 74 | 1029.2 |
| 20260830094533 | 14 | 0.0 | 1.6 | 0.00 | 0.00 | 0.00 | 74 | 1029.3 | |
| 20260830093536 | 14 | 1 | 0.0 | 3.2 | 0.00 | 0.00 | 0.00 | 73 | 1029.2 |
| 20260830092519 | 15 | 11 | 4.8 | 6.4 | 0.00 | 0.00 | 0.00 | 72 | 1029.2 |
| 20260830091528 | 15 | 7 | 4.8 | 8.0 | 0.00 | 0.00 | 0.00 | 71 | 1029.0 |
| 20260830090532 | 15 | 5 | 6.4 | 8.0 | 0.00 | 0.00 | 0.00 | 69 | 1029.0 |
| 20260830085533 | 15 | 6 | 6.4 | 9.7 | 0.00 | 0.00 | 0.00 | 68 | 1029.0 |
| 20260830084535 | 15 | 7 | 6.4 | 9.7 | 0.00 | 0.00 | 0.00 | 66 | 1028.9 |
| 20260830083521 | 15 | 10 | 4.8 | 9.7 | 0.00 | 0.00 | 0.00 | 66 | 1028.9 |
| 20260830082526 | 16 | 6 | 6.4 | 9.7 | 0.00 | 0.00 | 0.00 | 64 | 1028.7 |
| 20260830081528 | 16 | 1 | 8.0 | 14.5 | 0.00 | 0.00 | 0.00 | 62 | 1028.6 |
| 20260830080535 | 16 | 359 | 8.0 | 12.9 | 0.00 | 0.00 | 0.00 | 61 | 1028.4 |
| 20260830075520 | 16 | 4 | 8.0 | 14.5 | 0.00 | 0.00 | 0.00 | 61 | 1028.3 |
| 20260830074526 | 17 | 10 | 8.0 | 11.3 | 0.00 | 0.00 | 0.00 | 61 | 1028.3 |
| 20260830073530 | 17 | 357 | 8.0 | 12.9 | 0.00 | 0.00 | 0.00 | 60 | 1028.2 |
| 20260830045912 | 20 | 348 | 9.7 | 16.1 | 0.00 | 0.00 | 0.00 | 52 | 1028.3 |
| 20260830042020 | 20 | 356 | 11.3 | 17.7 | 0.00 | 0.00 | 0.00 | 48 | 1028.4 |
| 20260830041537 | 20 | 346 | 11.3 | 20.9 | 0.00 | 0.00 | 0.00 | 47 | 1028.2 |
| 20260830040522 | 20 | 354 | 11.3 | 19.3 | 0.00 | 0.00 | 0.00 | 47 | 1028.4 |
| 20260830035526 | 20 | 348 | 11.3 | 19.3 | 0.00 | 0.00 | 0.00 | 47 | 1028.4 |
| 20260830034536 | 19 | 341 | 14.5 | 25.7 | 0.00 | 0.00 | 0.00 | 49 | 1028.5 |
| 20260830033525 | 19 | 339 | 12.9 | 22.5 | 0.00 | 0.00 | 0.00 | 50 | 1028.4 |
| 20260830032020 | 19 | 349 | 9.7 | 16.1 | 0.00 | 0.00 | 0.00 | 47 | 1028.7 |
| 20260830031024 | 19 | 330 | 8.0 | 14.5 | 0.00 | 0.00 | 0.00 | 47 | 1028.9 |
| 20260830025532 | 18 | 357 | 9.7 | 17.7 | 0.00 | 0.00 | 0.00 | 50 | 1028.9 |
| 20260830024517 | 18 | 346 | 12.9 | 20.9 | 0.00 | 0.00 | 0.00 | 48 | 1029.2 |
| 20260830023523 | 18 | 352 | 11.3 | 17.7 | 0.00 | 0.00 | 0.00 | 51 | 1029.3 |